Wind_Speed
20 26 26 27 26 24 22 22 22 20 18 18 14 11 8 6 4 3 2 0 0 2 2 4 6 6 8 9 9 8 7 6 4 4 3 2 2 3 4 7 11 17 20
25 25 29 30 30 27 24 23 22 22 21 21 16 13 11 9 7 6 4 3 3 2 2 5 8 9 8 10 10 8 7 6 5 5 3 2 1 2 4 9 10 11 15
21 27 30 32 29 27 28 27 25 23 22 22 19 15 14 12 10 9 7 5 6 6 4 6 9 11 11 11 10 9 7 6 5 5 5 4 2 3 4 4 8 13 15
18 23 27 31 31 30 29 29 28 25 22 20 21 19 17 15 13 11 11 8 8 9 8 8 9 12 14 14 13 11 9 8 8 8 8 7 4 2 4 7 10 13 15
14 15 21 29 34 35 31 29 30 27 25 24 22 22 21 18 16 15 13 11 10 12 12 12 12 13 15 15 16 16 14 11 11 11 10 9 7 4 4 7 10 13 17
18 14 20 25 31 34 34 31 30 29 28 26 24 23 22 21 19 18 15 13 12 13 15 14 14 14 16 17 18 18 18 16 14 13 11 10 8 7 6 9 10 11 12
23 16 15 21 27 31 34 33 30 29 31 29 28 26 23 23 22 20 18 15 13 14 16 17 17 17 17 19 20 20 20 20 17 14 14 11 8 8 9 12 14 14 16
25 18 16 15 21 29 32 32 32 30 30 30 30 29 26 24 23 21 20 16 13 15 16 17 19 20 19 21 22 21 22 22 19 17 15 14 11 12 13 15 17 17 18
25 16 15 16 19 24 29 32 32 32 30 28 30 30 28 25 25 23 21 17 15 16 17 17 19 22 22 24 22 22 22 22 21 19 17 15 14 15 17 17 19 19 20
21 18 18 17 17 20 26 31 33 32 32 32 30 30 30 28 26 25 22 19 17 19 19 16 17 22 24 24 24 25 24 25 21 19 18 16 16 17 18 20 20 22 25
23 24 24 20 17 20 23 30 32 30 31 32 31 31 31 29 28 25 24 22 20 21 20 19 18 21 25 25 28 25 24 23 19 17 16 16 18 19 20 21 22 25 27
30 30 28 23 20 21 23 26 30 30 29 31 32 31 30 29 28 26 26 25 24 23 22 22 22 22 23 26 28 29 27 25 20 19 19 20 19 18 18 20 24 29 32
35 34 33 29 24 24 24 27 28 29 28 28 29 29 29 30 29 28 26 28 27 25 25 23 23 23 24 27 29 31 29 25 23 23 23 22 19 20 21 23 28 33 34
40 38 36 32 27 25 24 28 29 29 28 26 25 27 30 32 32 30 29 29 30 29 27 26 26 26 25 26 29 31 30 28 28 27 25 23 22 22 23 27 31 35 32
43 42 41 38 31 28 27 27 28 30 31 32 31 30 30 31 31 34 35 33 32 33 34 33 29 27 26 27 30 32 31 31 29 27 24 22 25 27 29 32 36 37 37
46 45 47 42 38 33 31 30 28 32 33 34 36 36 33 31 34 36 36 36 37 38 37 34 32 31 30 30 30 31 32 30 29 30 27 29 31 33 35 37 39 40 41
48 49 51 47 42 40 36 34 33 31 32 34 36 37 36 34 33 35 38 40 42 42 38 36 37 37 36 37 35 33 33 33 34 33 35 36 37 37 40 40 43 45 46
54 50 49 46 44 41 42 35 38 35 32 32 33 38 39 39 38 37 39 41 42 44 42 43 43 42 41 40 40 38 38 38 38 41 41 42 42 42 41 43 44 46 46
58 56 52 50 50 49 45 44 38 41 37 37 35 35 38 41 42 44 42 42 44 44 45 45 46 44 43 43 43 43 44 45 45 46 46 46 45 46 48 45 48 47 45
53 58 57 55 54 54 53 49 46 45 44 45 42 43 43 42 43 49 50 49 48 45 45 47 48 48 49 48 47 48 49 51 50 48 46 48 50 51 49 46 46 45 44
53 54 59 61 59 56 56 55 52 52 48 48 52 52 46 49 50 50 48 48 48 48 50 50 51 47 47 50 49 48 47 47 43 33 39 42 45 45 43 43 43 41 40
54 54 57 61 67 66 59 59 57 57 56 54 56 52 50 57 63 49 47 46 48 51 53 56 58 57 51 62 62 64 42 26 26 34 37 36 40 39 41 42 41 41 41
52 53 54 59 64 66 67 67 67 67 64 59 60 62 64 57 50 50 50 50 51 54 55 56 58 61 63 67 64 69 52 46 27 31 33 38 40 38 40 41 41 40 42
52 51 51 53 55 60 66 68 71 71 70 70 59 53 55 53 65 47 49 48 39 57 58 56 59 65 54 61 56 55 63 31 30 35 36 40 42 43 43 43 44 44 44
52 48 47 49 52 52 46 61 65 61 61 63 65 59 63 41 59 67 59 47 40 46 63 66 73 50 38 36 31 30 26 30 33 39 42 45 47 49 50 50 50 50 51
52 48 47 46 47 49 50 52 56 65 75 55 47 58 62 62 61 59 62 61 36 39 36 37 44 35 42 41 36 35 34 36 40 45 49 52 53 54 56 56 57 57 59
Wind_Direction
222 216 213 214 210 215 213 216 217 215 217 223 216 219 212 215 221 195 196 267 41 70 182 175 166 162 155 164 160 157 152 143 149 143 142 97 74 76 61 38 21 18 13
226 226 217 216 214 211 215 218 222 219 217 232 226 220 219 217 219 225 239 219 266 254 213 198 183 179 186 177 178 182 185 182 178 183 194 213 300 21 20 17 8 11 3
230 222 223 219 220 216 216 216 222 225 224 223 231 231 233 228 225 228 231 242 242 250 232 210 198 191 192 190 186 191 199 204 210 212 213 206 211 326 5 346 1 1 346
233 222 222 222 219 218 218 218 217 222 230 229 230 233 238 237 231 234 237 243 251 247 229 220 215 209 205 203 202 205 210 211 213 222 218 213 217 257 308 338 339 336 332
228 229 224 222 222 220 218 221 219 220 223 229 232 235 239 242 237 238 242 250 253 244 237 228 221 216 212 212 211 214 223 226 222 226 225 226 234 254 296 322 329 329 331
212 234 230 226 225 224 222 222 224 225 228 230 233 241 242 242 242 242 245 255 262 242 232 235 229 223 216 211 215 217 217 221 226 230 227 232 238 263 306 323 324 327 330
211 221 238 233 229 224 224 225 224 224 228 229 231 237 245 244 245 244 246 249 258 240 230 228 228 228 222 217 219 223 219 218 227 229 236 241 255 280 295 304 319 322 320
206 213 237 242 232 225 222 223 226 227 229 231 233 233 239 246 244 242 243 250 244 230 229 228 225 226 226 222 228 229 220 217 229 234 239 249 257 273 289 304 305 313 319
193 208 232 239 230 226 222 221 223 225 227 229 232 232 234 243 244 239 237 239 232 229 231 233 226 226 230 228 231 225 222 225 230 238 244 250 262 273 286 294 299 305 308
204 207 223 235 231 225 223 220 223 224 226 227 230 232 229 235 240 238 233 231 229 229 228 231 232 232 234 233 230 226 228 235 234 242 245 253 264 271 278 285 290 296 301
208 218 224 230 235 232 229 224 223 224 228 230 232 234 229 234 239 239 230 224 231 230 228 234 239 243 241 237 232 231 230 243 243 243 250 256 263 271 281 290 297 298 297
216 216 220 226 235 240 234 230 222 224 227 230 231 236 230 233 238 241 233 224 230 235 237 242 245 247 247 239 233 235 240 242 241 246 256 263 268 273 279 286 293 294 293
212 224 217 215 228 242 239 233 226 224 227 230 230 234 230 234 240 242 241 231 231 234 237 239 243 248 245 242 236 235 239 241 246 254 258 258 262 264 270 285 290 293 295
212 216 225 221 227 238 241 235 229 225 225 227 228 228 230 234 238 242 242 239 235 235 238 239 242 242 242 242 238 236 240 245 251 253 254 254 251 277 284 284 292 295 299
214 217 218 220 229 235 237 238 229 227 225 226 226 226 227 230 234 235 236 240 239 239 238 245 250 249 247 245 243 243 247 249 253 253 240 250 264 271 280 288 291 294 293
215 216 222 218 224 230 237 237 233 227 227 227 229 231 231 230 231 234 233 237 239 242 245 247 247 246 245 243 244 243 246 248 247 253 255 263 267 275 281 288 290 292 295
219 213 222 220 225 228 231 235 239 231 229 231 234 234 233 232 234 234 233 234 239 242 245 243 241 239 238 237 238 242 241 238 246 255 258 261 268 272 284 285 285 287 297
223 219 225 222 227 231 226 235 239 232 233 232 237 238 233 231 233 237 235 234 236 241 239 236 236 237 239 240 240 240 240 243 251 256 261 267 272 279 283 287 287 291 296
224 224 223 223 228 233 235 232 242 233 235 236 236 244 245 234 234 235 237 239 237 236 238 237 237 239 241 243 244 245 244 245 248 254 261 270 278 283 286 282 284 285 288
227 225 224 225 227 231 236 238 236 234 235 238 240 243 242 239 237 234 233 235 238 237 233 234 237 238 241 244 244 245 244 245 250 256 267 271 274 278 278 278 279 280 278
231 228 225 226 231 232 235 240 241 243 241 245 247 240 245 251 247 239 238 242 245 243 239 239 243 239 243 248 244 242 243 243 239 255 267 271 275 275 276 274 272 271 269
231 231 229 228 229 233 236 240 242 245 246 246 248 256 258 277 250 240 238 241 242 243 242 247 251 261 240 255 246 253 239 245 240 256 263 270 273 273 271 270 271 271 268
231 232 232 231 232 234 235 238 243 245 244 242 244 248 255 264 260 239 236 238 242 247 249 252 253 257 262 265 263 267 257 249 256 264 268 269 268 270 271 272 274 275 276
232 231 233 236 236 235 237 240 242 246 253 253 255 254 252 252 260 229 232 242 232 247 248 252 257 264 269 270 269 254 252 242 259 261 268 273 275 276 273 273 273 274 275
229 227 231 233 236 239 237 234 238 247 248 227 247 255 258 259 255 238 251 255 247 247 245 252 251 256 264 269 274 266 264 266 262 265 269 272 274 274 275 275 274 273 274
228 229 231 233 237 240 245 242 240 244 246 256 253 249 255 255 261 261 262 270 239 242 247 254 245 244 252 255 260 263 264 263 265 268 270 272 273 273 273 274 276 277 278
Height
5913 5917 5922 5927 5932 5936 5939 5942 5946 5949 5952 5953 5956 5958 5960 5961 5963 5964 5964 5964 5964 5963 5964 5966 5967 5968 5969 5971 5973 5974 5975 5977 5978 5978 5978 5978 5978 5978 5976 5975 5973 5971 5969
5907 5911 5917 5921 5926 5931 5935 5939 5942 5945 5948 5949 5953 5956 5958 5960 5962 5963 5964 5964 5964 5964 5964 5966 5967 5968 5969 5970 5972 5974 5976 5976 5978 5978 5979 5979 5978 5978 5977 5975 5974 5972 5970
5902 5906 5910 5916 5922 5928 5931 5934 5938 5941 5944 5947 5949 5952 5954 5957 5959 5961 5963 5963 5964 5964 5963 5964 5966 5967 5969 5970 5971 5973 5974 5976 5977 5978 5978 5978 5978 5977 5976 5976 5974 5972 5970
5898 5901 5905 5910 5916 5921 5924 5928 5932 5936 5939 5943 5945 5947 5950 5953 5956 5958 5960 5962 5962 5963 5963 5963 5964 5965 5967 5969 5970 5971 5973 5974 5976 5977 5977 5978 5977 5977 5976 5975 5974 5972 5970
5893 5897 5900 5903 5908 5913 5919 5923 5927 5931 5935 5938 5941 5943 5946 5949 5951 5953 5956 5959 5960 5960 5960 5960 5961 5963 5965 5967 5968 5969 5971 5972 5974 5975 5976 5976 5976 5976 5976 5975 5974 5972 5969
5888 5891 5894 5898 5901 5908 5913 5918 5922 5926 5930 5933 5937 5939 5942 5945 5947 5949 5952 5954 5956 5957 5957 5958 5958 5959 5961 5962 5964 5966 5968 5969 5971 5972 5973 5974 5974 5973 5972 5972 5971 5970 5968
5880 5884 5889 5893 5897 5902 5907 5911 5917 5921 5923 5928 5931 5934 5937 5940 5942 5945 5947 5949 5950 5952 5953 5954 5955 5956 5958 5959 5960 5963 5964 5966 5967 5969 5970 5970 5970 5970 5969 5969 5967 5966 5964
5870 5876 5882 5887 5891 5895 5900 5905 5910 5914 5918 5922 5925 5928 5931 5934 5937 5940 5942 5944 5946 5947 5949 5951 5952 5953 5954 5955 5957 5959 5960 5962 5963 5965 5965 5966 5966 5966 5965 5965 5963 5962 5960
5862 5870 5876 5879 5883 5888 5893 5898 5902 5906 5911 5916 5918 5922 5925 5928 5931 5934 5937 5940 5941 5943 5945 5946 5948 5949 5950 5951 5953 5954 5956 5958 5960 5961 5962 5962 5961 5961 5961 5960 5958 5957 5956
5857 5862 5870 5874 5877 5882 5886 5890 5894 5899 5903 5907 5911 5915 5919 5922 5924 5927 5931 5934 5937 5938 5940 5942 5943 5944 5945 5947 5949 5950 5952 5952 5955 5956 5957 5957 5957 5956 5956 5955 5953 5951 5949
5846 5856 5864 5868 5871 5875 5879 5882 5887 5892 5895 5901 5905 5908 5912 5916 5918 5921 5924 5928 5931 5933 5936 5937 5938 5939 5940 5942 5943 5945 5946 5947 5949 5950 5951 5951 5951 5951 5950 5948 5946 5945 5944
5842 5848 5857 5862 5865 5869 5874 5877 5880 5884 5888 5893 5897 5901 5905 5909 5912 5914 5917 5922 5924 5928 5930 5932 5933 5934 5935 5936 5938 5939 5940 5941 5944 5944 5945 5945 5945 5944 5943 5942 5941 5940 5937
5837 5844 5849 5853 5859 5863 5867 5870 5873 5877 5881 5886 5890 5894 5899 5902 5905 5908 5910 5914 5917 5921 5923 5925 5926 5927 5928 5929 5931 5932 5933 5935 5937 5938 5938 5938 5938 5937 5937 5936 5935 5933 5930
5826 5834 5841 5847 5852 5857 5860 5863 5866 5870 5875 5879 5883 5887 5891 5894 5898 5901 5904 5906 5910 5912 5915 5916 5918 5919 5921 5924 5925 5926 5928 5929 5930 5931 5931 5932 5931 5932 5930 5928 5927 5925 5923
5818 5826 5830 5837 5844 5848 5852 5855 5858 5862 5866 5871 5875 5877 5880 5885 5890 5892 5894 5898 5901 5903 5904 5907 5910 5912 5914 5916 5917 5919 5921 5922 5923 5923 5924 5924 5924 5924 5922 5920 5918 5917 5915
5808 5816 5821 5827 5832 5838 5843 5848 5851 5854 5858 5862 5865 5869 5872 5877 5878 5881 5886 5888 5891 5892 5895 5899 5901 5903 5905 5907 5909 5910 5911 5913 5914 5914 5915 5915 5915 5914 5913 5911 5909 5907 5906
5796 5804 5810 5816 5823 5828 5833 5838 5844 5846 5849 5853 5856 5859 5864 5868 5869 5871 5874 5877 5879 5881 5886 5889 5891 5892 5894 5896 5898 5900 5902 5903 5904 5905 5906 5905 5904 5904 5904 5902 5899 5898 5897
5784 5792 5798 5805 5812 5817 5823 5829 5834 5839 5841 5843 5846 5848 5853 5856 5859 5862 5863 5866 5869 5871 5873 5876 5878 5880 5882 5884 5887 5889 5890 5893 5894 5894 5894 5894 5894 5894 5893 5892 5889 5888 5887
5771 5779 5787 5795 5801 5807 5813 5818 5822 5828 5832 5833 5834 5837 5842 5845 5848 5850 5854 5855 5855 5859 5862 5864 5867 5868 5871 5873 5874 5877 5879 5880 5881 5882 5883 5884 5884 5883 5882 5880 5879 5878 5877
5760 5768 5776 5783 5790 5796 5801 5806 5812 5815 5818 5821 5823 5824 5828 5830 5833 5834 5836 5840 5842 5847 5850 5852 5852 5854 5857 5859 5862 5863 5866 5864 5866 5869 5870 5870 5870 5870 5868 5868 5867 5866 5866
5749 5756 5764 5771 5778 5783 5790 5795 5799 5803 5808 5812 5810 5814 5815 5816 5820 5824 5830 5834 5838 5840 5842 5842 5840 5844 5847 5851 5849 5846 5844 5842 5837 5852 5854 5853 5852 5852 5852 5854 5854 5854 5853
5738 5744 5751 5758 5764 5770 5778 5782 5787 5789 5795 5798 5798 5798 5802 5803 5806 5813 5817 5823 5826 5827 5830 5830 5831 5820 5831 5835 5835 5833 5823 5809 5827 5836 5840 5840 5842 5841 5840 5841 5842 5841 5841
5726 5731 5737 5744 5750 5756 5763 5769 5773 5775 5776 5777 5781 5788 5790 5791 5793 5799 5802 5806 5811 5814 5817 5818 5817 5816 5818 5818 5814 5815 5816 5814 5815 5822 5825 5828 5830 5829 5828 5829 5828 5827 5827
5714 5720 5725 5730 5736 5742 5747 5753 5757 5760 5760 5764 5766 5770 5774 5778 5777 5777 5786 5780 5790 5799 5800 5803 5803 5806 5805 5799 5795 5798 5802 5799 5805 5812 5812 5814 5815 5816 5816 5815 5813 5813 5812
5702 5708 5713 5718 5724 5730 5730 5733 5744 5746 5748 5736 5747 5754 5758 5759 5763 5769 5769 5778 5779 5779 5783 5784 5786 5791 5790 5791 5788 5787 5787 5792 5795 5797 5798 5801 5801 5801 5801 5800 5799 5797 5795
5690 5696 5702 5707 5712 5716 5720 5726 5731 5731 5726 5727 5736 5745 5745 5748 5751 5755 5758 5762 5762 5764 5765 5766 5768 5771 5774 5775 5775 5777 5779 5780 5782 5783 5784 5784 5784 5784 5783 5782 5780 5779 5777